Date String (YYYY-MM-DD hh:mm:ss) UTC,Instrument flags,absolute air pressure of the measurement (hPa),sample flow rate (lpm),inlet stack bypass flow (lpm),air temperature of the measurement (°C),ambient temperature measured by the external sensor (°C),aerosol sample conditioner tube jacket temperature (°C),OPC LED temperature (°C),internal box temperature (°C),relative humidity of the measurement (%),span deviation,mass concentration of particles derived from Lorenz-Mie calculation of OPC scattering (μg/m³),mass concentration of particles derived from Lorenz-Mie calculation of OPC scattering (μg/m³),mass concentration of particles derived from Lorenz-Mie calculation of OPC scattering (μg/m³)
DateTimeUTC,F1_M11,P_M11,Q1_M11,Q2_M11,T1_M11,T2_M11,T3_M11,T4_M11,T5_M11,U1_M11,ZSPAN_M11,X0_M11,X2_M11,X1_M11
2024-04-11 16:00:00,SystemResetWarning,0832.8,5.00,000.00,023.9,023.3,000.0,032.2,025.6,016.6,0000.0,0009.69,0004.01,0003.49
2024-04-11 16:01:00,SystemResetWarning,0832.8,4.99,000.00,023.9,023.3,000.0,032.2,025.6,016.2,0000.0,0009.95,0004.03,0003.50
2024-04-11 16:02:00,SystemResetWarning,0832.8,4.99,000.00,023.9,023.3,000.0,032.2,025.6,016.3,0000.0,0010.91,0003.99,0003.49
2024-04-11 16:03:00,SystemResetWarning,0832.8,5.00,000.00,023.9,023.3,000.0,032.3,025.7,016.3,0000.0,0010.72,0003.95,0003.48
2024-04-11 16:04:00,SystemResetWarning,0832.7,5.00,000.00,023.9,023.4,000.0,032.3,025.7,016.3,0000.0,0010.89,0003.94,0003.48
2024-04-11 16:05:00,SystemResetWarning,0832.8,5.00,000.00,023.9,023.4,000.0,032.3,025.7,016.4,0000.0,0011.06,0003.92,0003.48
2024-04-11 16:06:00,SystemResetWarning,0832.7,5.00,000.00,023.9,023.4,000.0,032.3,025.7,016.4,0000.0,0011.51,0003.97,0003.48
2024-04-11 16:07:00,SystemResetWarning,0832.7,5.01,000.00,023.9,023.4,000.0,032.3,025.7,016.5,0000.0,0012.15,0004.01,0003.49
2024-04-11 16:08:00,SystemResetWarning,0832.8,5.00,000.00,023.9,023.4,000.0,032.3,025.7,016.1,0000.0,0011.79,0004.02,0003.48
2024-04-11 16:09:00,SystemResetWarning,0832.7,5.01,000.00,024.0,023.4,000.0,032.3,025.7,016.1,0000.0,0011.09,0003.99,0003.48
2024-04-11 16:10:00,SystemResetWarning,0832.8,5.00,000.00,024.0,023.5,000.0,032.3,025.8,016.4,0000.0,0010.90,0003.98,0003.49
2024-04-11 16:11:00,SystemResetWarning,0832.7,5.00,000.00,024.0,023.5,000.0,032.3,025.8,016.2,0000.0,0010.71,0003.94,0003.48
2024-04-11 16:12:00,SystemResetWarning,0832.7,5.00,000.00,024.0,023.5,000.0,032.3,025.9,016.3,0000.0,0010.40,0003.92,0003.49
2024-04-11 16:13:00,SystemResetWarning,0832.8,4.99,000.00,024.0,023.5,000.0,032.4,025.9,016.4,0000.0,0009.61,0003.94,0003.52
2024-04-11 16:14:00,SystemResetWarning,0832.8,5.00,000.00,024.0,023.5,000.0,032.4,025.9,016.4,0000.0,0009.44,0003.98,0003.54
2024-04-11 16:15:00,SystemResetWarning,0832.8,5.00,000.00,024.0,023.5,000.0,032.4,025.9,016.2,0000.0,0009.96,0004.02,0003.55
2024-04-11 16:16:00,SystemResetWarning,0832.9,5.00,000.00,024.0,023.5,000.0,032.4,025.9,016.1,0000.0,0010.02,0004.07,0003.58
2024-04-11 16:17:00,SystemResetWarning,0832.9,5.00,000.00,024.0,023.5,000.0,032.4,025.9,016.2,0000.0,0010.32,0004.10,0003.61
2024-04-11 16:18:00,SystemResetWarning,0832.8,5.00,000.00,024.0,023.5,000.0,032.4,025.9,016.4,0000.0,0009.81,0004.11,0003.62
2024-04-11 16:19:00,SystemResetWarning,0832.8,5.00,000.00,024.1,023.6,000.0,032.4,025.9,016.4,0000.0,0009.21,0004.12,0003.64
2024-04-11 16:20:00,SystemResetWarning,0832.8,5.01,000.00,024.1,023.6,000.0,032.4,025.9,016.2,0000.0,0009.08,0004.17,0003.66
2024-04-11 16:21:00,SystemResetWarning,0832.8,5.01,000.00,024.1,023.6,000.0,032.4,025.9,016.2,0000.0,0008.93,0004.19,0003.67
2024-04-11 16:22:00,SystemResetWarning,0832.8,4.99,000.00,024.1,023.6,000.0,032.4,026.0,016.5,0000.0,0009.12,0004.24,0003.69
2024-04-11 16:23:00,SystemResetWarning,0832.8,4.99,000.00,024.1,023.6,000.0,032.5,026.0,016.4,0000.0,0009.19,0004.26,0003.70
2024-04-11 16:24:00,SystemResetWarning,0832.8,5.00,000.00,024.1,023.6,000.0,032.5,026.0,016.2,0000.0,0009.12,0004.26,0003.69
2024-04-11 16:25:00,SystemResetWarning,0832.8,5.00,000.00,024.1,023.6,000.0,032.5,026.0,016.2,0000.0,0009.13,0004.28,0003.69
2024-04-11 16:26:00,SystemResetWarning,0832.7,5.01,000.00,024.2,023.7,000.0,032.5,026.0,016.1,0000.0,0008.48,0004.24,0003.68
2024-04-11 16:27:00,SystemResetWarning,0832.8,5.01,000.00,024.2,023.7,000.0,032.5,026.0,016.0,0000.0,0008.18,0004.26,0003.68
2024-04-11 16:28:00,SystemResetWarning,0832.7,4.99,000.00,024.2,023.7,000.0,032.5,026.0,016.0,0000.0,0007.73,0004.32,0003.68
2024-04-11 16:29:00,SystemResetWarning,0832.7,4.99,000.00,024.2,023.7,000.0,032.5,026.0,016.1,0000.0,0007.62,0004.30,0003.67
2024-04-11 16:30:00,SystemResetWarning,0832.7,5.01,000.00,024.2,023.7,000.0,032.5,026.0,016.5,0000.0,0008.12,0004.28,0003.66
2024-04-11 16:31:00,SystemResetWarning,0832.7,5.01,000.00,024.2,023.7,000.0,032.5,026.1,016.3,0000.0,0008.42,0004.26,0003.65
2024-04-11 16:32:00,SystemResetWarning,0832.7,5.01,000.00,024.2,023.7,000.0,032.6,026.1,016.3,0000.0,0008.72,0004.25,0003.63
2024-04-11 16:33:00,SystemResetWarning,0832.7,5.00,000.00,024.2,023.7,000.0,032.6,026.1,016.3,0000.0,0008.80,0004.25,0003.62
2024-04-11 16:34:00,SystemResetWarning,0832.7,5.00,000.00,024.2,023.7,000.0,032.6,026.1,016.1,0000.0,0009.24,0004.26,0003.61
2024-04-11 16:35:00,SystemResetWarning,0832.7,5.00,000.00,024.2,023.7,000.0,032.6,026.0,016.2,0000.0,0009.40,0004.27,0003.62
2024-04-11 16:36:00,SystemResetWarning,0832.7,4.99,000.00,024.2,023.7,000.0,032.6,026.0,016.3,0000.0,0009.28,0004.25,0003.61
2024-04-11 16:37:00,SystemResetWarning,0832.7,5.00,000.00,024.2,023.7,000.0,032.6,026.0,016.3,0000.0,0009.43,0004.28,0003.62
2024-04-11 16:38:00,SystemResetWarning,0832.7,4.99,000.00,024.2,023.7,000.0,032.6,026.1,016.2,0000.0,0009.40,0004.23,0003.63
2024-04-11 16:39:00,SystemResetWarning,0832.7,5.00,000.00,024.3,023.7,000.0,032.6,026.1,016.2,0000.0,0009.32,0004.16,0003.63
2024-04-11 16:40:00,SystemResetWarning,0832.7,5.01,000.00,024.3,023.7,000.0,032.6,026.1,016.4,0000.0,0009.41,0004.18,0003.64
2024-04-11 16:41:00,SystemResetWarning,0832.6,5.00,000.00,024.3,023.7,000.0,032.6,026.1,016.1,0000.0,0009.00,0004.19,0003.65
2024-04-11 16:42:00,SystemResetWarning,0832.6,5.00,000.00,024.3,023.8,000.0,032.6,026.2,016.4,0000.0,0008.58,0004.19,0003.66
2024-04-11 16:43:00,SystemResetWarning,0832.7,5.00,000.00,024.3,023.8,000.0,032.7,026.2,016.4,0000.0,0008.96,0004.18,0003.67
2024-04-11 16:44:00,SystemResetWarning,0832.6,5.00,000.00,024.3,023.8,000.0,032.7,026.2,016.3,0000.0,0008.94,0004.17,0003.67
2024-04-11 16:45:00,SystemResetWarning,0832.6,5.00,000.00,024.3,023.8,000.0,032.7,026.2,016.1,0000.0,0008.83,0004.20,0003.68
2024-04-11 16:46:00,SystemResetWarning,0832.6,5.00,000.00,024.3,023.8,000.0,032.7,026.2,016.0,0000.0,0008.70,0004.20,0003.69
2024-04-11 16:47:00,SystemResetWarning,0832.6,5.00,000.00,024.3,023.8,000.0,032.7,026.2,016.0,0000.0,0008.75,0004.22,0003.70
2024-04-11 16:48:00,SystemResetWarning,0832.6,5.00,000.00,024.4,023.8,000.0,032.7,026.2,016.1,0000.0,0009.57,0004.25,0003.72
2024-04-11 16:49:00,SystemResetWarning,0832.6,5.00,000.00,024.4,023.8,000.0,032.7,026.2,016.2,0000.0,0010.29,0004.30,0003.74
2024-04-11 16:50:00,SystemResetWarning,0832.6,5.00,000.00,024.4,023.8,000.0,032.7,026.2,016.2,0000.0,0011.07,0004.29,0003.74
2024-04-11 16:51:00,SystemResetWarning,0832.7,4.99,000.00,024.4,023.8,000.0,032.7,026.2,016.2,0000.0,0011.58,0004.29,0003.76
2024-04-11 16:52:00,SystemResetWarning,0832.6,5.00,000.00,024.4,023.9,000.0,032.7,026.3,016.3,0000.0,0012.17,0004.32,0003.79
2024-04-11 16:53:00,SystemResetWarning,0832.6,5.00,000.00,024.4,023.9,000.0,032.8,026.3,016.3,0000.0,0012.87,0004.37,0003.81
2024-04-11 16:54:00,SystemResetWarning,0832.6,5.00,000.00,024.4,023.9,000.0,032.8,026.3,016.2,0000.0,0012.89,0004.44,0003.84
2024-04-11 16:55:00,SystemResetWarning,0832.6,5.00,000.00,024.4,023.9,000.0,032.8,026.3,016.1,0000.0,0013.26,0004.50,0003.87
2024-04-11 16:56:00,SystemResetWarning,0832.6,5.00,000.00,024.4,023.9,000.0,032.8,026.3,016.1,0000.0,0013.56,0004.53,0003.89
2024-04-11 16:57:00,SystemResetWarning,0832.6,5.00,000.00,024.4,023.9,000.0,032.8,026.3,016.0,0000.0,0015.02,0004.61,0003.91
2024-04-11 16:58:00,SystemResetWarning,0832.5,5.00,000.00,024.4,023.8,000.0,032.8,026.3,015.9,0000.0,0015.19,0004.66,0003.93
2024-04-11 16:59:00,SystemResetWarning,0832.5,4.99,000.00,024.4,023.8,000.0,032.8,026.3,016.3,0000.0,0014.46,0004.67,0003.93
